sat.trackr.live / text

‹ back to catalog

STARLINK-36347

NORAD 68521 · 2026-068P

PAYLOAD ACTIVE UNKNOWN

§ Identity

Operator
Country
US
Launch date
2026-03-30
Launch site
AFETR
Launch vehicle
Mass (kg)
RCS (m²)

Purposes: comms

External: N2YO · Heavens-Above · Gunter

§ Orbital elements

Epoch: 2026-05-24T23:26:50.139744Z

Period
94.10 min
Inclination
53.1582°
Eccentricity
0.0000934
Mean motion
15.30216563 rev/d
Perigee alt
474.5 km
Apogee alt
475.8 km
Semi-major
6,853.3 km
B*
8.0747e-4
RAAN
135.0085°
Arg perigee
94.5716°
Mean anomaly
265.5391°
Rev number
862

§ Raw data

STARLINK-363471 68521U 26068P   26144.97696921  .00023644  00000+0  80747-3 0  99972 68521  53.1582 135.0085 0000934  94.5716 265.5391 15.30216563  8627

JSON: /api/v1/satellites/68521 · /tle

For live sub-satellite position, see the globe view (requires WebGL).

§ Visibility from observer

Set your observer location to see the next 7 days of passes ≥ 10°. The values pass through the URL so the page stays shareable.

No JS? Fill the form by hand. The geolocation button needs JavaScript.